Flag for Germany Weather past 2 weeks in Neuruppin, Brandenburg, Germany

Now
70 °F

Partly sunny.


Feels Like: 70 °F
Forecast: 64 / 89 °F
Wind: 1 mph from East

Location: Neuruppin

Current Time: Aug 30, 2015 at 4:12:40 PM

Latest Report: Aug 30, 2015 at 4:00 PM


Visibility: 6 mi

Pressure: 30.07 "Hg

Humidity: 91%

Dew point: 67 °F

Location of NeuruppinLocation

Historic Weather in Neuruppin — Graph

°F

Neuruppin temperature yesterday

Maximum temperature yesterday: 72 °F (at 5:00 PM)
Minimum temperature yesterday: 51 °F (at 7:00 AM)
Average temperature yesterday: 62 °F

Past Weeks' High & Low Weather Summary

 TemperatureHumidityPressure
High82 °F (Aug 16, 3:00 PM)99% (Aug 20, 3:00 AM)30.32 "Hg (Aug 20, 3:00 AM)
Low51 °F (Aug 29, 7:00 AM)32% (Aug 22, 3:00 PM)29.70 "Hg (Aug 24, 8:00 PM)
Average66 °F72%30.01 "Hg
* Reported Aug 15 3:00 PM — Aug 30 3:00 PM, Neuruppin, Weather by CustomWeather, © 2015

Note: Actual official high and low records may vary slightly from our data, if they occured in-between our weather recording intervals... More about our weather records

Advertising

Neuruppin weather history for previous 24 hours

 ConditionsComfort  
Time TempWeatherWind HumidityBarometerVisibility
3:00 PM
Sun, Aug 30
78 °FPartly sunny.3 mph60%30.06 "Hg6 mi
2:00 PM80 °FOvercast.1 mph55%30.09 "Hg6 mi
1:00 PM76 °FScattered clouds.3 mph58%30.10 "Hg6 mi
12:00 PM72 °FOvercast.3 mph64%30.14 "Hg6 mi
11:00 AM74 °FPartly sunny.1 mph62%30.14 "Hg6 mi
10:00 AM70 °FSunny.1 mph65%30.14 "Hg6 mi
9:00 AM64 °FPassing clouds.1 mph76%30.15 "Hg6 mi
8:00 AM59 °FScattered clouds.1 mph82%30.15 "Hg6 mi
7:00 AM56 °FSunny.No wind90%30.14 "Hg6 mi
6:00 AM57 °FOvercast.1 mph86%30.14 "Hg6 mi
4:00 AM57 °FPassing clouds.1 mph88%30.16 "Hg6 mi
3:00 AM57 °FClear.1 mph89%30.16 "Hg6 mi
2:00 AM57 °FClear.1 mph90%30.17 "Hg6 mi
1:00 AM58 °FClear.1 mph88%30.18 "Hg6 mi
12:00 AM58 °FClear.1 mph88%30.19 "Hg4 mi
10:00 PM
Sat, Aug 29
60 °FClear.No wind89%30.20 "Hg6 mi
9:00 PM62 °FClear.No wind85%30.19 "Hg6 mi
8:00 PM65 °FSunny.No wind73%30.19 "Hg6 mi
7:00 PM70 °FSunny.1 mph62%30.20 "Hg6 mi
6:00 PM71 °FSunny.1 mph56%30.22 "Hg6 mi
5:00 PM72 °FPassing clouds.1 mph56%30.23 "Hg6 mi
4:00 PM71 °FScattered clouds.2 mph56%30.24 "Hg6 mi
Weather by CustomWeather, © 2015

See weather overviewHow to use our weather pages